{"data":{"norad_id":53410,"intl_designator":"2022-097Y","name":"STARLINK-4492","alt_names":[],"object_type":"PAYLOAD","status":"ACTIVE","operator":null,"country":"US","launch_date":"2022-08-10","launch_site_code":"AFETR","launch_vehicle":null,"mission":null,"orbit_class":"UNKNOWN","rcs_meters":null,"size_class":null,"mass_kg":null,"dimensions":null,"purposes":["comms"],"wikipedia_slug":null,"has_3d_model":false,"image_url":null,"decayed_at":null,"tle_current":{"epoch":"2026-09-20T04:00:03.000096Z","epoch_age_seconds":104253,"freshness":"FRESH","line1":"1 53410U 22097Y   26263.16670139  .00051213  00000+0  21925-2 0  9997","line2":"2 53410  53.1596 319.2111 0001816  98.3812  35.6223 15.22323017  5786","mean_motion":15.22323017,"eccentricity":0.0001816,"inclination_deg":53.1596,"raan_deg":319.2111,"arg_perigee_deg":98.3812,"mean_anomaly_deg":35.6223,"bstar":0.0021925,"rev_number":578,"period_min":94.592276666602,"perigee_km":497.58681777891,"apogee_km":500.08453425484,"semimajor_km":6876.9726760169,"source":"CELESTRAK","updated_at":"2026-09-20T09:00:40.227332Z"}}}